Radiation Dose at Monitoring Post of Fukushima Daini Nuclear Power Station
Date,Time,MP-1(microSv/h),MP-2(microSv/h),MP-3(microSv/h),MP-4(microSv/h),MP-5(microSv/h),MP-6(microSv/h),MP-7(microSv/h),Wind Direction,Wind Velocity(m/s),Rain
2013/08/31,00:00,0.9,0.6,0.9,0.9,0.8,0.4,0.3,north,3.1,No
2013/08/31,00:10,0.9,0.6,0.9,0.9,0.8,0.4,0.3,north,2.3,No
2013/08/31,00:20,0.9,0.6,0.9,0.9,0.8,0.4,0.3,north,2.8,No
2013/08/31,00:30,0.9,0.6,0.9,0.9,0.8,0.4,0.3,north,2.8,No
2013/08/31,00:40,0.9,0.6,0.9,0.9,0.8,0.4,0.3,north,3.0,No
2013/08/31,00:50,0.9,0.6,0.9,0.9,0.8,0.4,0.3,north,2.9,No
2013/08/31,01:00,0.9,0.6,0.9,0.9,0.8,0.4,0.3,north,2.2,No
2013/08/31,01:10,0.9,0.6,0.9,0.9,0.8,0.4,0.3,north-northwest,3.5,No
2013/08/31,01:20,0.9,0.6,0.9,0.9,0.8,0.4,0.3,north-northwest,2.5,No
2013/08/31,01:30,0.9,0.6,0.9,0.9,0.8,0.4,0.3,north-northwest,2.8,No
2013/08/31,01:40,0.9,0.6,0.9,0.9,0.8,0.4,0.3,north-northwest,2.4,No
2013/08/31,01:50,0.9,0.6,0.9,0.9,0.8,0.4,0.3,north-northwest,1.9,No
2013/08/31,02:00,0.9,0.6,0.9,0.9,0.8,0.4,0.3,north-northwest,2.0,No
2013/08/31,02:10,0.9,0.6,0.9,0.9,0.8,0.4,0.3,north-northwest,1.9,No
2013/08/31,02:20,0.9,0.6,0.9,0.9,0.8,0.4,0.3,north-northwest,1.7,No
2013/08/31,02:30,0.9,0.6,0.9,0.9,0.8,0.4,0.3,northwest,2.4,No
2013/08/31,02:40,0.9,0.6,0.9,0.9,0.8,0.4,0.3,north-northwest,2.6,No
2013/08/31,02:50,0.9,0.6,0.9,0.9,0.8,0.4,0.3,north-northwest,2.6,No
2013/08/31,03:00,0.9,0.6,0.9,0.9,0.8,0.4,0.3,northwest,2.8,No
2013/08/31,03:10,0.9,0.6,0.9,0.9,0.8,0.4,0.3,northwest,3.1,No
2013/08/31,03:20,0.9,0.6,0.9,0.9,0.8,0.4,0.3,northwest,2.6,No
2013/08/31,03:30,0.9,0.6,0.9,0.9,0.8,0.4,0.3,northwest,2.6,No
2013/08/31,03:40,0.9,0.6,0.9,0.9,0.8,0.4,0.3,northwest,2.5,No
2013/08/31,03:50,0.9,0.6,0.9,0.9,0.8,0.4,0.3,northwest,2.3,No
2013/08/31,04:00,0.9,0.6,0.9,0.9,0.8,0.4,0.3,north-northwest,2.9,No
2013/08/31,04:10,0.9,0.6,0.9,0.9,0.8,0.4,0.3,north-northwest,2.7,No
2013/08/31,04:20,0.9,0.6,0.9,0.9,0.8,0.4,0.3,north-northwest,2.3,No
2013/08/31,04:30,0.9,0.6,0.9,0.9,0.8,0.4,0.3,north-northwest,1.6,No
2013/08/31,04:40,0.9,0.6,0.9,0.9,0.8,0.4,0.3,north,1.6,No
2013/08/31,04:50,0.9,0.6,0.9,0.9,0.8,0.4,0.3,north-northwest,1.9,No
2013/08/31,05:00,0.9,0.6,0.9,0.9,0.8,0.4,0.3,north,2.5,No
2013/08/31,05:10,0.9,0.6,0.9,0.9,0.8,0.4,0.3,north,1.9,No
2013/08/31,05:20,0.9,0.6,0.9,0.9,0.8,0.4,0.3,north-northwest,2.2,No
2013/08/31,05:30,0.9,0.6,0.9,0.9,0.8,0.4,0.3,north-northwest,2.2,No
2013/08/31,05:40,0.9,0.6,0.9,0.9,0.8,0.4,0.3,north-northwest,2.4,No
2013/08/31,05:50,0.9,0.6,0.9,0.9,0.8,0.4,0.3,north-northwest,2.5,No
2013/08/31,06:00,0.9,0.6,0.9,0.9,0.8,0.4,0.3,north-northwest,2.3,No
2013/08/31,06:10,0.9,0.6,0.9,0.9,0.8,0.4,0.3,north-northwest,1.6,No
2013/08/31,06:20,0.9,0.6,0.9,0.9,0.8,0.4,0.3,north-northwest,1.0,No
2013/08/31,06:30,0.9,0.6,0.9,0.9,0.8,0.4,0.3,north,1.4,No
2013/08/31,06:40,0.9,0.6,0.9,0.9,0.8,0.4,0.3,north-northeast,1.5,No
2013/08/31,06:50,0.9,0.6,0.9,0.9,0.8,0.4,0.3,north-northeast,1.4,No
2013/08/31,07:00,0.9,0.6,0.9,0.9,0.8,0.4,0.3,northeast,1.3,No
2013/08/31,07:10,0.9,0.6,0.9,0.9,0.8,0.4,0.3,north-northeast,2.2,No
2013/08/31,07:20,0.9,0.6,0.9,0.9,0.8,0.4,0.3,north-northeast,3.3,No
2013/08/31,07:30,0.9,0.6,0.9,0.9,0.8,0.4,0.3,north-northeast,2.9,No
2013/08/31,07:40,0.9,0.6,0.9,0.9,0.8,0.4,0.3,north-northeast,4.0,No
2013/08/31,07:50,0.9,0.6,0.9,0.9,0.8,0.4,0.3,north,4.5,No
2013/08/31,08:00,0.9,0.6,0.9,0.9,0.8,0.4,0.3,north-northeast,4.5,No
2013/08/31,08:10,0.9,0.6,0.9,0.9,0.8,0.4,0.3,north-northeast,4.0,No
2013/08/31,08:20,0.9,0.6,0.9,0.9,0.8,0.4,0.3,north-northeast,4.3,No
2013/08/31,08:30,0.9,0.6,0.9,0.9,0.8,0.4,0.3,northeast,3.7,No
2013/08/31,08:40,0.9,0.6,0.9,0.9,0.8,0.4,0.3,north-northeast,2.3,No
2013/08/31,08:50,0.9,0.6,0.9,0.9,0.8,0.4,0.3,north-northeast,2.6,No
2013/08/31,09:00,0.9,0.6,0.9,0.9,0.8,0.4,0.3,north-northeast,3.1,No
2013/08/31,09:10,0.9,0.6,0.9,0.9,0.8,0.4,0.3,north-northeast,1.6,No
2013/08/31,09:20,0.9,0.6,0.9,0.9,0.8,0.4,0.3,north-northeast,2.4,No
2013/08/31,09:30,0.9,0.6,0.9,0.9,0.8,0.4,0.3,north-northeast,1.6,No
2013/08/31,09:40,0.9,0.6,0.9,0.9,0.8,0.4,0.3,northeast,0.9,No
2013/08/31,09:50,0.9,0.6,0.9,0.9,0.8,0.4,0.3,northeast,1.2,No
2013/08/31,10:00,0.9,0.6,0.9,0.9,0.8,0.4,0.3,east,0.5,No
2013/08/31,10:10,0.9,0.6,0.9,0.9,0.8,0.4,0.3,east-southeast,0.6,No
2013/08/31,10:20,0.9,0.6,0.9,0.9,0.8,0.4,0.3,northeast,1.2,No
2013/08/31,10:30,0.9,0.6,0.9,0.9,0.8,0.4,0.3,east-northeast,1.0,No
2013/08/31,10:40,0.9,0.6,0.9,0.9,0.8,0.4,0.3,east-northeast,1.9,No
2013/08/31,10:50,0.9,0.6,0.9,0.9,0.8,0.4,0.3,east-northeast,2.3,No
2013/08/31,11:00,0.9,0.6,0.9,0.9,0.8,0.4,0.3,east-northeast,2.5,No
2013/08/31,11:10,0.9,0.6,0.9,0.9,0.8,0.4,0.3,northeast,3.0,No
2013/08/31,11:20,0.9,0.6,0.9,0.9,0.8,0.4,0.3,northeast,3.0,No
2013/08/31,11:30,0.9,0.6,0.9,0.9,0.8,0.4,0.3,northeast,3.6,No
2013/08/31,11:40,0.9,0.6,0.9,0.9,0.8,0.4,0.3,east-northeast,3.6,No
2013/08/31,11:50,0.9,0.6,0.9,0.9,0.8,0.4,0.3,northeast,3.8,No
2013/08/31,12:00,0.9,0.6,0.9,0.9,0.8,0.4,0.3,east-northeast,4.0,No
2013/08/31,12:10,0.9,0.6,0.9,0.9,0.8,0.4,0.3,northeast,4.5,No
2013/08/31,12:20,0.9,0.6,0.9,0.9,0.8,0.4,0.3,north-northeast,3.7,No
2013/08/31,12:30,0.9,0.6,0.9,0.9,0.8,0.4,0.3,north-northeast,3.0,No
2013/08/31,12:40,0.9,0.6,0.9,0.9,0.8,0.4,0.3,north-northeast,4.0,No
2013/08/31,12:50,0.9,0.6,0.9,0.9,0.8,0.4,0.3,northeast,4.2,No
2013/08/31,13:00,0.9,0.6,0.9,0.9,0.8,0.4,0.3,northeast,3.6,No
2013/08/31,13:10,0.9,0.6,0.9,0.9,0.8,0.4,0.3,northeast,3.3,No
2013/08/31,13:20,0.9,0.6,0.9,0.9,0.8,0.4,0.3,north-northeast,3.2,No
2013/08/31,13:30,0.9,0.6,0.9,0.9,0.8,0.4,0.3,northeast,3.2,No
2013/08/31,13:40,0.9,0.6,0.9,0.9,0.8,0.4,0.3,north-northeast,2.8,No
2013/08/31,13:50,0.9,0.6,0.9,0.9,0.8,0.4,0.3,northeast,2.8,No
2013/08/31,14:00,0.9,0.6,0.9,0.9,0.8,0.4,0.3,northeast,2.2,No
2013/08/31,14:10,0.9,0.6,0.9,0.9,0.8,0.4,0.3,east-northeast,2.3,No
2013/08/31,14:20,0.9,0.6,0.9,0.9,0.8,0.4,0.3,northeast,1.4,No
2013/08/31,14:30,0.9,0.6,0.9,0.9,0.8,0.4,0.3,northeast,1.1,No
2013/08/31,14:40,0.9,0.6,0.9,0.9,0.8,0.4,0.3,northeast,2.8,No
2013/08/31,14:50,0.9,0.6,0.9,0.9,0.8,0.4,0.3,northeast,2.2,No
2013/08/31,15:00,0.9,0.6,0.9,0.9,0.8,0.4,0.3,east,1.9,No
2013/08/31,15:10,0.9,0.6,0.9,0.9,0.8,0.4,0.3,east-northeast,2.3,No
2013/08/31,15:20,0.9,0.6,0.9,0.9,0.8,0.4,0.3,east-northeast,1.6,No
2013/08/31,15:30,0.9,0.6,0.9,0.9,0.8,0.4,0.3,east-northeast,2.0,No
2013/08/31,15:40,0.9,0.6,0.9,0.9,0.8,0.4,0.3,east,1.6,No
2013/08/31,15:50,0.9,0.6,0.9,0.9,0.8,0.4,0.3,north-northeast,1.3,No
2013/08/31,16:00,0.9,0.6,0.9,0.9,0.8,0.4,0.3,east,0.7,No
2013/08/31,16:10,0.9,0.6,0.9,0.9,0.8,0.4,0.3,north-northeast,0.6,No
2013/08/31,16:20,0.9,0.6,0.9,0.9,0.8,0.4,0.3,northeast,1.4,No
2013/08/31,16:30,0.9,0.6,0.9,0.9,0.8,0.4,0.3,north-northeast,0.7,No
2013/08/31,16:40,0.9,0.6,0.9,0.9,0.8,0.4,0.3,east-northeast,0.5,No
2013/08/31,16:50,0.9,0.6,0.9,0.9,0.8,0.4,0.3,north-northeast,0.8,No
2013/08/31,17:00,0.9,0.6,0.9,0.9,0.8,0.4,0.3,east,1.4,No
2013/08/31,17:10,0.9,0.6,0.9,0.9,0.8,0.4,0.3,east-southeast,0.9,No
2013/08/31,17:20,0.9,0.6,0.9,0.9,0.8,0.4,0.3,-,CALM,No
2013/08/31,17:30,0.9,0.6,0.9,0.9,0.8,0.4,0.3,east-southeast,1.1,No
2013/08/31,17:40,0.9,0.6,0.9,0.9,0.8,0.4,0.3,east,0.7,No
2013/08/31,17:50,0.9,0.6,0.9,0.9,0.8,0.4,0.3,east-northeast,1.5,No
2013/08/31,18:00,0.9,0.6,0.9,0.9,0.8,0.4,0.3,northeast,0.7,No
2013/08/31,18:10,0.9,0.6,0.9,0.9,0.8,0.4,0.3,north,0.6,No
2013/08/31,18:20,0.9,0.6,0.9,0.9,0.8,0.4,0.3,-,CALM,No
2013/08/31,18:30,0.9,0.6,0.9,0.9,0.8,0.4,0.3,-,CALM,No
2013/08/31,18:40,0.9,0.6,0.9,0.9,0.8,0.4,0.3,-,CALM,No
2013/08/31,18:50,0.9,0.6,0.9,0.9,0.8,0.4,0.3,-,CALM,No
2013/08/31,19:00,0.9,0.6,0.9,0.9,0.8,0.4,0.3,-,CALM,No
2013/08/31,19:10,0.9,0.6,0.9,0.9,0.8,0.4,0.3,south,0.8,No
2013/08/31,19:20,0.9,0.6,0.9,0.9,0.8,0.4,0.3,south-southwest,1.4,No
2013/08/31,19:30,0.9,0.6,0.9,0.9,0.8,0.4,0.3,south,1.1,No
2013/08/31,19:40,0.9,0.6,0.9,0.9,0.8,0.4,0.3,south,2.8,No
2013/08/31,19:50,0.9,0.6,0.9,0.9,0.8,0.4,0.3,south,2.4,No
2013/08/31,20:00,0.9,0.6,0.9,0.9,0.8,0.4,0.3,south,3.9,No
2013/08/31,20:10,0.9,0.6,0.9,0.9,0.8,0.4,0.3,south,3.3,No
2013/08/31,20:20,0.9,0.6,0.9,0.9,0.8,0.4,0.3,south,4.2,No
2013/08/31,20:30,0.9,0.6,0.9,0.9,0.8,0.4,0.3,south,4.4,No
2013/08/31,20:40,0.9,0.6,0.9,0.9,0.8,0.4,0.3,south,4.8,No
2013/08/31,20:50,0.9,0.6,0.9,0.9,0.8,0.4,0.3,south,4.4,No
2013/08/31,21:00,0.9,0.6,0.9,0.9,0.8,0.4,0.3,south,2.8,No
2013/08/31,21:10,0.9,0.6,0.9,0.9,0.8,0.4,0.3,south-southwest,1.5,No
2013/08/31,21:20,0.9,0.6,0.9,0.9,0.8,0.4,0.3,south-southwest,1.6,No
2013/08/31,21:30,0.9,0.6,0.9,0.9,0.8,0.4,0.3,southwest,0.5,No
2013/08/31,21:40,0.9,0.6,0.9,0.9,0.8,0.4,0.3,-,CALM,No
2013/08/31,21:50,0.9,0.6,0.9,0.9,0.8,0.4,0.3,-,CALM,No
2013/08/31,22:00,0.9,0.6,0.9,0.9,0.8,0.4,0.3,north-northeast,4.5,Yes
2013/08/31,22:10,0.9,0.6,0.9,0.9,0.8,0.4,0.3,north,4.2,Yes
2013/08/31,22:20,0.9,0.6,0.9,0.9,0.8,0.4,0.3,north-northwest,4.1,Yes
2013/08/31,22:30,0.9,0.6,0.9,0.9,0.8,0.4,0.3,west-northwest,1.4,No
2013/08/31,22:40,0.9,0.6,0.9,0.9,0.8,0.4,0.3,west,3.6,No
2013/08/31,22:50,0.9,0.6,0.9,0.9,0.8,0.4,0.3,west,6.9,Yes
2013/08/31,23:00,0.9,0.6,0.9,0.9,0.8,0.4,0.3,west,9.5,Yes
2013/08/31,23:10,0.9,0.6,0.9,0.9,0.8,0.4,0.3,west,2.8,Yes
2013/08/31,23:20,0.9,0.6,0.9,0.9,0.8,0.4,0.3,south-southeast,0.7,Yes
2013/08/31,23:30,0.9,0.6,0.9,0.9,0.8,0.4,0.3,north-northeast,1.6,Yes
2013/08/31,23:40,0.9,0.6,0.9,0.9,0.8,0.4,0.3,west-northwest,1.9,Yes
2013/08/31,23:50,0.9,0.6,0.9,0.9,0.8,0.4,0.3,west-northwest,3.6,Yes
